TimeCDT,TemperatureF,Dew PointF,Humidity,Sea Level PressureIn,VisibilityMPH,Wind Direction,Wind SpeedMPH,Gust SpeedMPH,PrecipitationIn,Events,Conditions,WindDirDegrees,DateUTC
12:53 AM,43.0,37.9,82,30.01,10.0,North,4.6,-,N/A,,Clear,350,2013-10-02 05:53:00
1:53 AM,43.0,37.0,80,30.02,10.0,Calm,Calm,-,N/A,,Clear,0,2013-10-02 06:53:00
2:53 AM,45.0,37.0,74,30.02,10.0,ENE,3.5,-,N/A,,Clear,70,2013-10-02 07:53:00
3:53 AM,46.0,36.0,68,30.01,10.0,ENE,3.5,-,N/A,,Clear,70,2013-10-02 08:53:00
4:53 AM,46.0,35.1,66,30.01,10.0,ENE,4.6,-,N/A,,Clear,70,2013-10-02 09:53:00
5:53 AM,46.9,34.0,61,30.01,10.0,East,4.6,-,N/A,,Clear,90,2013-10-02 10:53:00
6:53 AM,46.0,34.0,63,30.02,10.0,East,6.9,-,N/A,,Clear,80,2013-10-02 11:53:00
7:53 AM,50.0,37.0,61,30.03,10.0,East,4.6,-,N/A,,Clear,100,2013-10-02 12:53:00
8:53 AM,62.1,33.1,34,30.01,10.0,ESE,15.0,-,N/A,,Clear,110,2013-10-02 13:53:00
9:53 AM,66.9,33.1,28,30.01,10.0,SE,20.7,26.5,N/A,,Mostly Cloudy,130,2013-10-02 14:53:00
10:53 AM,72.0,33.1,24,30.00,10.0,SE,17.3,28.8,N/A,,Overcast,130,2013-10-02 15:53:00
11:53 AM,75.0,34.0,22,29.98,10.0,SE,18.4,24.2,N/A,,Overcast,140,2013-10-02 16:53:00
12:53 PM,78.1,43.0,29,29.95,10.0,SE,18.4,-,N/A,,Clear,140,2013-10-02 17:53:00
1:53 PM,81.0,52.0,36,29.90,10.0,SSE,20.7,27.6,N/A,,Clear,150,2013-10-02 18:53:00
2:53 PM,80.1,55.9,43,29.87,10.0,SSE,19.6,28.8,N/A,,Partly Cloudy,160,2013-10-02 19:53:00
3:53 PM,82.0,59.0,45,29.84,10.0,South,17.3,-,N/A,,Clear,170,2013-10-02 20:53:00
4:20 PM,84.2,60.8,45,29.83,10.0,SSE,18.4,28.8,N/A,Thunderstorm,Thunderstorm,160,2013-10-02 21:20:00
4:51 PM,82.4,60.8,48,29.83,10.0,South,21.9,27.6,N/A,,Mostly Cloudy,180,2013-10-02 21:51:00
4:53 PM,82.9,60.1,46,29.82,10.0,South,17.3,27.6,N/A,,Mostly Cloudy,180,2013-10-02 21:53:00
5:25 PM,82.4,59.0,45,29.82,10.0,South,19.6,26.5,N/A,Thunderstorm,Overcast,190,2013-10-02 22:25:00
5:43 PM,82.4,59.0,45,29.82,10.0,South,16.1,24.2,N/A,,Mostly Cloudy,180,2013-10-02 22:43:00
5:53 PM,81.0,59.0,47,29.81,9.0,South,13.8,-,N/A,,Mostly Cloudy,180,2013-10-02 22:53:00
6:53 PM,78.1,59.0,52,29.81,10.0,South,9.2,-,N/A,Thunderstorm,Mostly Cloudy,180,2013-10-02 23:53:00
7:10 PM,78.8,59.0,51,29.81,10.0,South,9.2,-,N/A,,Mostly Cloudy,180,2013-10-03 00:10:00
7:53 PM,75.0,59.0,57,29.81,10.0,South,8.1,-,N/A,,Mostly Cloudy,170,2013-10-03 00:53:00
8:53 PM,75.0,59.0,57,29.82,10.0,South,9.2,-,0.00,Rain,Light Rain,190,2013-10-03 01:53:00
9:53 PM,71.1,60.1,68,29.81,10.0,South,8.1,-,0.01,,Partly Cloudy,180,2013-10-03 02:53:00
10:53 PM,70.0,59.0,68,29.81,10.0,South,6.9,-,N/A,,Clear,180,2013-10-03 03:53:00
11:53 PM,66.9,59.0,76,29.81,10.0,SSW,4.6,-,N/A,,Partly Cloudy,210,2013-10-03 04:53:00